This is the latest recevied weather packets stored in our database for station/object W4DEX-2. If no packets are shown the sender has not sent any weather packets the latest 10 day(s).
| Time | Temp. | Humidity | Pressure | Rain* | Wind** | Luminosity | Snow |
|---|---|---|---|---|---|---|---|
| 1777920603 | 25° C | 20% | 1014.5 hPa | 0 mm | 4.92 m/s, 186° | - | - |
| 1777920303 | 25° C | 21% | 1014.4 hPa | 0 mm | 4.92 m/s, 176° | - | - |
| 1777920002 | 24.44° C | 20% | 1014.5 hPa | 0 mm | 4.92 m/s, 176° | - | - |
| 1777919402 | 25° C | 20% | 1014.8 hPa | 0 mm | 5.36 m/s, 167° | - | - |
| 1777919103 | 25° C | 20% | 1014.8 hPa | 0 mm | 5.36 m/s, 167° | - | - |
| 1777918807 | 23.89° C | 21% | 1014.8 hPa | 0 mm | 4.92 m/s, 177° | - | - |
| 1777918504 | 24.44° C | 23% | 1014.9 hPa | 0 mm | 5.36 m/s, 185° | - | - |
| 1777918203 | 23.89° C | 20% | 1014.9 hPa | 0 mm | 4.02 m/s, 169° | - | - |
| 1777917603 | 24.44° C | 22% | 1015.1 hPa | 0 mm | 4.92 m/s, 186° | - | - |
| 1777917003 | 24.44° C | 22% | 1014.9 hPa | 0 mm | 4.92 m/s, 187° | - | - |
| 1777916702 | 23.89° C | 26% | 1015.2 hPa | 0 mm | 4.92 m/s, 178° | - | - |
| 1777916403 | 23.33° C | 25% | 1015 hPa | 0 mm | 4.92 m/s, 178° | - | - |
| 1777916102 | 23.89° C | 26% | 1015.1 hPa | 0 mm | 4.92 m/s, 177° | - | - |
| 1777915803 | 23.89° C | 25% | 1015.4 hPa | 0 mm | 4.92 m/s, 190° | - | - |
| 1777914302 | 23.33° C | 26% | 1015.6 hPa | 0 mm | 4.47 m/s, 175° | - | - |
| 1777914002 | 23.33° C | 24% | 1015.7 hPa | 0 mm | 4.47 m/s, 174° | - | - |
| 1777913703 | 23.33° C | 26% | 1015.7 hPa | 0 mm | 3.58 m/s, 189° | - | - |
| 1777913402 | 22.78° C | 25% | 1015.9 hPa | 0 mm | 3.58 m/s, 177° | - | - |
| 1777911902 | 22.78° C | 23% | 1016.3 hPa | 0 mm | 4.47 m/s, 196° | - | - |
| 1777911603 | 22.78° C | 26% | 1016.3 hPa | 0 mm | 3.58 m/s, 189° | - | - |
| 1777911002 | 22.22° C | 26% | 1016.5 hPa | 0 mm | 2.68 m/s, 177° | - | - |
| 1777910702 | 22.78° C | 28% | 1016.6 hPa | 0 mm | 3.58 m/s, 187° | - | - |
| 1777910403 | 21.67° C | 30% | 1016.5 hPa | 0 mm | 4.02 m/s, 176° | - | - |
| 1777910102 | 21.67° C | 28% | 1016.6 hPa | 0 mm | 4.92 m/s, 159° | - | - |
| 1777909802 | 21.67° C | 30% | 1016.5 hPa | 0 mm | 4.92 m/s, 177° | - | - |
* Rain latest hour (hover to see other rain measurements)
** Current wind speed in m/s (hover to see current wind gust speed)